To NAV CANADA Home Page Login to a new session Search on AWWS site Feedback and Comments Disclaimer Vers la page française équivalente Tips FAQ What's new on the site To the Forecasts and Observations / NOTAM section To "File a Flight Plan" website Publications and other links Update of the User's profile FIC Telephone Numbers My Weather Data Folder Route Weather Data Regional Weather Data Local Weather Data To the Forecasts and Observations / NOTAM section
Request Generated 05/05/2015 at 01:09:57 UTC . Weather information available at that time is displayed.

METAR/TAF

FLIN FLON/MB    

LWIS CYFO 050100Z AUTO 29006KT 260V330 09/M04 A3012=
LWIS CYFO 050000Z AUTO 28010KT 230V320 09/M05 A3012=
METAR CYFO 042300Z 30009G15KT 270V350 15SM FEW100 FEW250 10/M04 A3012
RMK AC1CI1 LAST OBS / NEXT 051100UTC SLP215=

CYFO - No TAF is issued for this station

Your time UTC time
Weather data provided by Environment Canada and NAV CANADA